AirNav   Textron
 
 540 users online  

2JY5 Jet Line South Heliport
Cinnaminson, New Jersey, USA


FAA INFORMATION EFFECTIVE 12 OCTOBER 2017

Location

FAA Identifier: 2JY5
Lat/Long: 40-00-57.0000N / 074-58-32.8000W
40-00.950000N / 074-58.546667W
40.0158333 / -74.9757778
(estimated)
Elevation: 45 ft. / 14 m (estimated)
From city: 1 mile N of CINNAMINSON, NJ
Time zone: UTC -4 (UTC -5 during Standard Time)
Zip code: 08077

Heliport Operations

Heliport use: Private use. Permission required prior to landing
Activation date: 12/2006
Control tower: no
ARTCC: NEW YORK CENTER
FSS: MILLVILLE FLIGHT SERVICE STATION
Attendance: DAWN-DUSK
Wind indicator: yes
Segmented circle: no

Heliport Communications

WX ASOS at PNE (4 nm N): PHONE 215-677-0146
WX ASOS at VAY (7 nm SE): 119.325 (609-267-1176)
WX ASOS at PHL (15 nm SW): PHONE 215-492-9617
WX AWOS-3 at LOM (15 nm NW): 118.925 (215-646-1068)
WX ASOS at TTN (17 nm NE): 126.77 (609-538-8690)

Nearby radio navigation aids

VOR radial/distance  VOR name  Freq  Var
PNEr169/(4.3)NORTH PHILADELPHIA VOR112.0010W
ARDr202/14.6YARDLEY VOR/DME108.2010W
GXUr283/17.4MC GUIRE VORTAC110.6012W
RBVr253/24.7ROBBINSVILLE VORTAC113.8010W
OODr043/27.3WOODSTOWN VORTAC112.8010W
CYNr305/27.7COYLE VORTAC113.4010W
VCNr009/28.7CEDAR LAKE VOR/DME115.2010W
PTWr124/29.5POTTSTOWN VORTAC116.5009W
MXEr089/32.5MODENA VORTAC113.2009W
DQOr065/35.4DUPONT VORTAC114.0010W
SBJr207/35.7SOLBERG VOR/DME112.9010W
ACYr341/38.3ATLANTIC CITY VORTAC108.6010W

 
NDB name  Hdg/Dist  Freq  Var  ID
AMBLER127/15.727512WING .. -. --.
LAKEHURST278/29.539611WNEL -. . .-..
RAINBOW023/36.636311WRNB .-. -. -...

Heliport Services

Runway Information

Helipad H1

Dimensions: 25 x 25 ft. / 8 x 8 m
Surface: asphalt
Traffic pattern: leftleft

Heliport Ownership and Management from official FAA records

Ownership: Privately-owned
Owner: JET 3G LLC
55 JACOBUS AVE
S. KEARNY, NJ 07032
Phone 973-588-3544
Manager: STEVEN EPSTEIN
55 JACOBUS AVE
S. KEARNY, NJ 07032
Phone (201) 738-2739

Instrument Procedures

There are no published instrument procedures at 2JY5.

Some nearby airports with instrument procedures:

KPNE - Northeast Philadelphia Airport (4 nm N)
KVAY - South Jersey Regional Airport (7 nm SE)
N14 - Flying W Airport (9 nm SE)
N73 - Red Lion Airport (12 nm SE)
19N - Camden County Airport (14 nm S)
KPHL - Philadelphia International Airport (15 nm SW)
KLOM - Wings Field Airport (15 nm NW)
KTTN - Trenton Mercer Airport (17 nm NE)
KWRI - McGuire Field (Joint Base Mc Guire Dix Lakehurst) Airport (18 nm E)
17N - Cross Keys Airport (19 nm S)
 
Loc | Ops | Rwys | IFR | FBO | Links
Com | Nav | Svcs | Stats | Notes


 
Area around 2JY5 (Jet Line South Heliport)
 
Road maps at: MapQuest Bing Google
 
Aerial photo
No photo
 
Sectional chart

 
Airport distance calculator
Flying to Jet Line South Heliport? Find the distance to fly.

From to 2JY5

Sunrise and sunset
Times for 22-Oct-2017
 Local
(UTC-4)
 Zulu
(UTC)
Morning civil twilight06:5110:51
Sunrise07:1911:19
Sunset18:1022:10
Evening civil twilight18:3822:38

Current date and time
Zulu (UTC)  22-Oct-2017 04:36:04
Local (UTC-4)  22-Oct-2017 00:36:04
 
METAR
KPNE 
4nm NW 
220354Z AUTO 00000KT 10SM CLR 13/09 A3038 RMK AO2 SLP287 T01280089 $
KVAY 
8nm SE 
ASOS 119.325 609-267-1176
220354Z AUTO 00000KT 10SM CLR 09/09 A3037 RMK AO2 SLP284 T00940094 $
KPHL 
15nm SW 
220354Z 17003KT 10SM SCT300 15/09 A3037 RMK AO2 SLP282 T01500089
KLOM 
15nm NW 
220415Z AUTO 00000KT 10SM CLR 06/06 A3038 RMK AO1
KTTN 
18nm NE 
ASOS 133.70 609-538-8690
220353Z AUTO 00000KT 10SM CLR 12/08 A3036 RMK AO2 SLP275 T01170078
KWRI 
18nm E 
220356Z 00000KT 10SM CLR 9/8 A3036 RMK AO2A SLP297 WND DATA ESTMD ALSTG/SLP ESTMD $
TAF
KPNE 
4nm NW 
211720Z 2118/2218 VRB03KT P6SM SKC
KPHL 
15nm SW 
212045Z 2121/2224 VRB03KT P6SM SCT250 FM221400 12007KT P6SM SCT250
KTTN 
18nm NE 
211720Z 2118/2218 VRB03KT P6SM SKC
KWRI 
18nm E 
220200Z 2202/2308 18006KT 9999 FEW250 QNH3028INS BECMG 2223/2224 17006KT 9999 BKN010 QNH3027INS BECMG 2304/2305 15006KT 4800 BR OVC005 QNH3030INS TX26/2219Z TN08/2209Z
NOTAMs
Click for the latest NOTAMs
NOTAMs are issued by the DoD/FAA and will open in a separate window not controlled by AirNav.

 

 
 

Would you like to see your business listed on this page?

 If your business provides an interesting product or service to pilots, flight crews, aircraft, or users of the Jet Line South Heliport, you should consider listing it here.  To start the listing process, click on the button below
 
Add a business
 

Other Pages about Jet Line South Heliport

Update a link
 
Copyright © AirNav, LLC. All rights reserved. Privacy Policy  Contact